Date String (YYYY-MM-DD hh:mm:ss) UTC,Instrument flags,Ambient pressure (hPa),Sample flow (lpm),Bypass flow (lpm),Sample temperature (°C),Ambient temperature (°C),ASC tube jacket temperature (°C),LED temperature (°C),Box temperature (°C),Sample RH (%),Span deviation,Mass concentration (μg/m³),Mass concentration (μg/m³),Mass concentration (μg/m³)
DateTimeUTC,F1_M11,P_M11,Q1_M11,Q2_M11,T1_M11,T2_M11,T3_M11,T4_M11,T5_M11,U1_M11,ZSPAN_M11,X0_M11,X2_M11,X1_M11
2022-04-01 09:00:00,,0816.4,5.01,0.00,27.9,26.9,00.0,36.9,29.6,09.4,0000.0,0009.34,0003.64,0002.36
2022-04-01 09:01:00,,0816.3,4.98,0.00,27.8,26.9,00.0,36.9,29.6,09.4,0000.0,0009.09,0003.66,0002.38
2022-04-01 09:02:00,,0816.4,5.01,0.00,27.8,26.9,00.0,36.8,29.6,09.5,0000.0,0008.34,0003.65,0002.40
2022-04-01 09:03:00,,0816.4,4.99,0.00,27.8,26.9,00.0,36.8,29.6,09.5,0000.0,0007.86,0003.62,0002.43
2022-04-01 09:04:00,,0816.4,5.02,0.00,27.8,26.9,00.0,36.8,29.6,09.5,0000.0,0008.03,0003.67,0002.48
2022-04-01 09:05:00,,0816.3,4.99,0.00,27.8,26.8,00.0,36.8,29.6,09.6,0000.0,0008.32,0003.71,0002.49
2022-04-01 09:06:00,,0816.3,4.99,0.00,27.8,26.8,00.0,36.8,29.5,09.7,0000.0,0008.74,0003.70,0002.48
2022-04-01 09:07:00,,0816.3,5.01,0.00,27.8,26.8,00.0,36.8,29.5,09.7,0000.0,0009.24,0003.68,0002.48
2022-04-01 09:08:00,,0816.3,5.00,0.00,27.8,26.8,00.0,36.8,29.5,09.7,0000.0,0009.18,0003.67,0002.46
2022-04-01 09:09:00,,0816.3,4.98,0.00,27.8,26.8,00.0,36.8,29.5,09.6,0000.0,0009.14,0003.64,0002.45
2022-04-01 09:10:00,,0816.3,5.00,0.00,27.8,26.9,00.0,36.8,29.5,09.6,0000.0,0009.25,0003.63,0002.47
2022-04-01 09:11:00,,0816.4,5.00,0.00,27.8,26.9,00.0,36.8,29.6,09.5,0000.0,0009.54,0003.68,0002.50
2022-04-01 09:12:00,,0816.3,4.99,0.00,27.8,26.9,00.0,36.8,29.6,09.5,0000.0,0009.44,0003.69,0002.52
2022-04-01 09:13:00,,0816.4,4.99,0.00,27.8,26.9,00.0,36.8,29.6,09.5,0000.0,0009.62,0003.73,0002.55
2022-04-01 09:14:00,,0816.4,5.01,0.00,27.8,26.9,00.0,36.8,29.6,09.4,0000.0,0009.69,0003.77,0002.57
2022-04-01 09:15:00,,0816.3,5.01,0.00,27.8,26.9,00.0,36.8,29.6,09.4,0000.0,0009.51,0003.74,0002.58
2022-04-01 09:16:00,,0816.2,4.99,0.00,27.8,26.8,00.0,36.8,29.5,09.3,0000.0,0009.11,0003.69,0002.61
2022-04-01 09:17:00,,0816.2,5.00,0.00,27.8,26.8,00.0,36.7,29.6,09.3,0000.0,0009.00,0003.65,0002.66
2022-04-01 09:18:00,,0816.3,5.00,0.00,27.8,26.8,00.0,36.7,29.5,09.4,0000.0,0008.21,0003.68,0002.70
2022-04-01 09:19:00,,0816.3,4.99,0.00,27.8,26.8,00.0,36.7,29.5,09.4,0000.0,0008.28,0003.66,0002.72
2022-04-01 09:20:00,,0816.3,5.00,0.00,27.7,26.8,00.0,36.7,29.5,09.4,0000.0,0008.81,0003.71,0002.76
2022-04-01 09:21:00,,0816.3,5.01,0.00,27.7,26.8,00.0,36.7,29.5,09.4,0000.0,0008.80,0003.75,0002.77
2022-04-01 09:22:00,,0816.4,4.98,0.00,27.7,26.8,00.0,36.7,29.5,09.5,0000.0,0008.61,0003.76,0002.78
2022-04-01 09:23:00,,0816.3,5.00,0.00,27.7,26.8,00.0,36.7,29.5,09.5,0000.0,0008.66,0003.78,0002.79
2022-04-01 09:24:00,,0816.4,5.01,0.00,27.7,26.8,00.0,36.7,29.5,09.6,0000.0,0008.78,0003.85,0002.79
2022-04-01 09:25:00,,0816.4,4.99,0.00,27.7,26.8,00.0,36.7,29.4,09.6,0000.0,0009.25,0003.90,0002.77
2022-04-01 09:26:00,,0816.4,5.02,0.00,27.7,26.8,00.0,36.7,29.5,09.7,0000.0,0009.26,0003.89,0002.76
2022-04-01 09:27:00,,0816.4,4.98,0.00,27.7,26.8,00.0,36.7,29.5,09.7,0000.0,0009.36,0003.93,0002.75
2022-04-01 09:28:00,,0816.4,5.01,0.00,27.7,26.8,00.0,36.7,29.5,09.7,0000.0,0009.23,0003.96,0002.72
2022-04-01 09:29:00,,0816.3,4.99,0.00,27.7,26.8,00.0,36.7,29.5,09.8,0000.0,0009.31,0003.95,0002.69
2022-04-01 09:30:00,,0816.3,4.99,0.00,27.7,26.8,00.0,36.7,29.4,09.9,0000.0,0009.32,0003.97,0002.68
2022-04-01 09:31:00,,0816.3,5.01,0.00,27.7,26.8,00.0,36.7,29.4,10.0,0000.0,0008.87,0003.97,0002.66
2022-04-01 09:32:00,,0816.3,5.00,0.00,27.7,26.8,00.0,36.7,29.4,10.0,0000.0,0008.87,0003.95,0002.65
2022-04-01 09:33:00,,0816.4,5.00,0.00,27.6,26.8,00.0,36.6,29.4,10.0,0000.0,0008.84,0003.95,0002.64
2022-04-01 09:34:00,,0816.4,4.99,0.00,27.6,26.7,00.0,36.6,29.4,10.2,0000.0,0008.76,0003.91,0002.63
2022-04-01 09:35:00,,0816.4,5.00,0.00,27.6,26.7,00.0,36.6,29.4,10.4,0000.0,0008.80,0003.84,0002.60
2022-04-01 09:36:00,,0816.3,5.01,0.00,27.6,26.7,00.0,36.6,29.4,10.5,0000.0,0008.36,0003.80,0002.58
2022-04-01 09:37:00,,0816.3,4.99,0.00,27.6,26.7,00.0,36.6,29.4,10.7,0000.0,0008.42,0003.80,0002.54
2022-04-01 09:38:00,,0816.4,5.02,0.00,27.6,26.7,00.0,36.6,29.3,10.8,0000.0,0008.60,0003.79,0002.51
2022-04-01 09:39:00,,0816.4,4.99,0.00,27.6,26.7,00.0,36.6,29.3,10.8,0000.0,0008.94,0003.79,0002.48
2022-04-01 09:40:00,,0816.4,4.98,0.00,27.6,26.7,00.0,36.6,29.3,10.9,0000.0,0008.78,0003.76,0002.46
2022-04-01 09:41:00,,0816.6,5.01,0.00,27.6,26.6,00.0,36.6,29.3,11.0,0000.0,0008.70,0003.74,0002.44
2022-04-01 09:42:00,,0816.6,4.99,0.00,27.5,26.6,00.0,36.6,29.3,11.1,0000.0,0008.57,0003.71,0002.41
2022-04-01 09:43:00,,0816.5,5.00,0.00,27.5,26.6,00.0,36.6,29.3,11.2,0000.0,0008.39,0003.69,0002.38
2022-04-01 09:44:00,,0816.4,5.01,0.00,27.5,26.6,00.0,36.5,29.3,11.3,0000.0,0008.78,0003.65,0002.35
2022-04-01 09:45:00,,0816.5,4.99,0.00,27.5,26.6,00.0,36.5,29.3,11.5,0000.0,0008.87,0003.61,0002.32
2022-04-01 09:46:00,,0816.5,5.02,0.00,27.5,26.6,00.0,36.5,29.2,11.6,0000.0,0009.17,0003.56,0002.29
2022-04-01 09:47:00,,0816.5,4.99,0.00,27.5,26.6,00.0,36.5,29.2,11.9,0000.0,0009.32,0003.47,0002.26
2022-04-01 09:48:00,,0816.5,5.01,0.00,27.5,26.6,00.0,36.5,29.2,12.1,0000.0,0009.09,0003.41,0002.24
2022-04-01 09:49:00,,0816.5,4.99,0.00,27.4,26.6,00.0,36.5,29.2,12.2,0000.0,0008.67,0003.32,0002.21
2022-04-01 09:50:00,,0816.4,5.01,0.00,27.4,26.6,00.0,36.5,29.2,12.2,0000.0,0008.16,0003.25,0002.19
2022-04-01 09:51:00,,0816.5,4.99,0.00,27.4,26.6,00.0,36.5,29.2,12.2,0000.0,0008.42,0003.22,0002.17
2022-04-01 09:52:00,,0816.6,5.01,0.00,27.4,26.5,00.0,36.4,29.2,12.3,0000.0,0008.26,0003.16,0002.14
2022-04-01 09:53:00,,0816.5,4.99,0.00,27.4,26.5,00.0,36.4,29.2,12.3,0000.0,0008.50,0003.05,0002.11
2022-04-01 09:54:00,,0816.5,5.00,0.00,27.4,26.5,00.0,36.4,29.2,12.4,0000.0,0008.46,0002.91,0002.07
2022-04-01 09:55:00,,0816.5,4.99,0.00,27.4,26.5,00.0,36.4,29.1,12.4,0000.0,0007.94,0002.78,0002.03
2022-04-01 09:56:00,,0816.4,5.01,0.00,27.4,26.5,00.0,36.4,29.1,12.5,0000.0,0007.51,0002.66,0002.00
2022-04-01 09:57:00,,0816.5,4.98,0.00,27.3,26.5,00.0,36.4,29.1,12.5,0000.0,0006.74,0002.57,0001.96
2022-04-01 09:58:00,,0816.4,5.03,0.00,27.3,26.5,00.0,36.4,29.1,12.6,0000.0,0005.97,0002.62,0001.94
2022-04-01 09:59:00,,0816.5,5.00,0.00,27.3,26.5,00.0,36.4,29.1,12.6,0000.0,0006.58,0002.64,0001.93
